| time (UTC) | temp F | wind direction | speed MPH | gust MPH | rain 1hr in | rain 24hr in | rain mn in | humidity % | barometer mb |
| 20260905230540 | 74 | 0 | 4.0 | 11.0 | 0.00 | 0.00 | 0.00 | 90 | 1016.5 |
| 20260905230051 | 74 | 0 | 3.0 | 10.0 | 0.00 | 0.00 | 0.00 | 90 | 1016.5 |
| 20260905225538 | 74 | 46 | 1.0 | 10.0 | 0.00 | 0.00 | 0.00 | 89 | 1016.5 |
| 20260905225043 | 74 | 42 | 3.0 | 10.0 | 0.00 | 0.00 | 0.00 | 89 | 1016.3 |
| 20260905224755 | 75 | 111 | 2.0 | 9.0 | 0.00 | 0.00 | 0.00 | 89 | 1016.3 |
| 20260905224037 | 75 | 38 | 2.0 | 9.0 | 0.00 | 0.00 | 0.00 | 88 | 1016.2 |
| 20260905223533 | 75 | 92 | 1.0 | 9.0 | 0.00 | 0.00 | 0.00 | 88 | 1016.3 |
| 20260905223054 | 75 | 35 | 2.0 | 11.0 | 0.00 | 0.00 | 0.00 | 87 | 1016.3 |
| 20260905222537 | 75 | 65 | 4.0 | 14.0 | 0.00 | 0.00 | 0.00 | 86 | 1016.1 |
| 20260905222037 | 75 | 53 | 3.0 | 14.0 | 0.00 | 0.00 | 0.00 | 85 | 1016.1 |
| 20260905221554 | 76 | 52 | 3.0 | 14.0 | 0.00 | 0.00 | 0.00 | 85 | 1016.1 |
| 20260905221034 | 76 | 50 | 5.0 | 14.0 | 0.00 | 0.00 | 0.00 | 84 | 1016.1 |
| 20260905220534 | 76 | 83 | 1.0 | 10.0 | 0.00 | 0.00 | 0.00 | 86 | 1016.2 |
| 20260905220059 | 77 | 82 | 5.0 | 12.0 | 0.00 | 0.00 | 0.00 | 84 | 1016.0 |
| 20260905215538 | 78 | 32 | 4.0 | 12.0 | 0.00 | 0.00 | 0.00 | 83 | 1015.8 |
| 20260905215033 | 78 | 0 | 3.0 | 9.0 | 0.00 | 0.00 | 0.00 | 85 | 1015.8 |
| 20260905214556 | 78 | 42 | 3.0 | 9.0 | 0.00 | 0.00 | 0.00 | 85 | 1015.8 |
| 20260905214037 | 78 | 34 | 3.0 | 12.0 | 0.00 | 0.00 | 0.00 | 85 | 1015.7 |
| 20260905213533 | 77 | 51 | 5.0 | 12.0 | 0.00 | 0.00 | 0.00 | 86 | 1015.6 |
| 20260905213110 | 77 | 39 | 5.0 | 13.0 | 0.00 | 0.00 | 0.00 | 85 | 1015.7 |
| 20260905212537 | 77 | 48 | 7.0 | 14.0 | 0.00 | 0.00 | 0.00 | 84 | 1015.5 |
| 20260905212034 | 78 | 41 | 7.0 | 14.0 | 0.00 | 0.00 | 0.00 | 83 | 1015.4 |
| 20260905211607 | 79 | 38 | 3.0 | 13.0 | 0.00 | 0.00 | 0.00 | 85 | 1015.4 |
| 20260905211038 | 78 | 40 | 4.0 | 13.0 | 0.00 | 0.00 | 0.00 | 84 | 1015.4 |
| 20260905210534 | 78 | 53 | 7.0 | 13.0 | 0.00 | 0.00 | 0.00 | 84 | 1015.3 |
| 20260905205534 | 78 | 46 | 5.0 | 13.0 | 0.00 | 0.00 | 0.00 | 84 | 1015.3 |
| 20260905205035 | 79 | 0 | 6.0 | 13.0 | 0.00 | 0.00 | 0.00 | 85 | 1015.2 |
| 20260905204551 | 79 | 57 | 7.0 | 13.0 | 0.00 | 0.00 | 0.00 | 86 | 1015.4 |
| 20260905204036 | 79 | 26 | 7.0 | 13.0 | 0.00 | 0.00 | 0.00 | 87 | 1015.3 |
| 20260905203537 | 79 | 26 | 7.0 | 13.0 | 0.00 | 0.00 | 0.00 | 86 | 1015.4 |
| 20260905203104 | 79 | 9 | 7.0 | 17.0 | 0.00 | 0.00 | 0.00 | 87 | 1015.4 |
| 20260905202536 | 79 | 28 | 9.0 | 17.0 | 0.00 | 0.00 | 0.00 | 85 | 1015.4 |
| 20260905202038 | 79 | 15 | 5.0 | 12.0 | 0.00 | 0.00 | 0.00 | 87 | 1015.5 |
| 20260905201602 | 79 | 42 | 5.0 | 15.0 | 0.00 | 0.00 | 0.00 | 84 | 1015.5 |
| 20260905201038 | 80 | 42 | 8.0 | 15.0 | 0.00 | 0.00 | 0.00 | 83 | 1015.5 |
| 20260905200535 | 81 | 12 | 4.0 | 12.0 | 0.00 | 0.00 | 0.00 | 82 | 1015.3 |
| 20260905200112 | 81 | 9 | 4.0 | 10.0 | 0.00 | 0.00 | 0.00 | 81 | 1015.6 |
| 20260905195538 | 81 | 348 | 3.0 | 10.0 | 0.00 | 0.00 | 0.00 | 83 | 1015.4 |
| 20260905195034 | 81 | 16 | 5.0 | 10.0 | 0.00 | 0.00 | 0.00 | 81 | 1015.6 |
| 20260905194600 | 81 | 23 | 5.0 | 10.0 | 0.00 | 0.00 | 0.00 | 82 | 1015.5 |
| 20260905194034 | 81 | 55 | 5.0 | 10.0 | 0.00 | 0.00 | 0.00 | 82 | 1015.4 |
| 20260905193534 | 81 | 59 | 5.0 | 11.0 | 0.00 | 0.00 | 0.00 | 82 | 1015.5 |
| 20260905193059 | 81 | 38 | 6.0 | 11.0 | 0.00 | 0.00 | 0.00 | 82 | 1015.5 |
| 20260905192536 | 81 | 49 | 4.0 | 9.0 | 0.00 | 0.00 | 0.00 | 83 | 1015.7 |
| 20260905192034 | 81 | 25 | 5.0 | 9.0 | 0.00 | 0.00 | 0.00 | 82 | 1015.6 |
| 20260905191553 | 80 | 5 | 3.0 | 13.0 | 0.00 | 0.00 | 0.00 | 81 | 1015.6 |
| 20260905191033 | 80 | 22 | 5.0 | 13.0 | 0.00 | 0.00 | 0.00 | 82 | 1015.6 |
| 20260905190533 | 80 | 30 | 5.0 | 13.0 | 0.00 | 0.00 | 0.00 | 82 | 1015.7 |
| 20260905190051 | 80 | 25 | 4.0 | 11.0 | 0.00 | 0.00 | 0.00 | 84 | 1015.6 |
| 20260905185534 | 80 | 40 | 5.0 | 13.0 | 0.00 | 0.00 | 0.00 | 82 | 1015.9 |
| 20260905185035 | 80 | 28 | 7.0 | 13.0 | 0.00 | 0.00 | 0.00 | 81 | 1015.8 |
| 20260905184606 | 80 | 28 | 4.0 | 10.0 | 0.00 | 0.00 | 0.00 | 83 | 1015.6 |
| 20260905184039 | 80 | 57 | 4.0 | 10.0 | 0.00 | 0.00 | 0.00 | 83 | 1015.6 |
| 20260905183535 | 80 | 55 | 4.0 | 9.0 | 0.00 | 0.00 | 0.00 | 83 | 1015.7 |
| 20260905183057 | 80 | 47 | 4.0 | 9.0 | 0.00 | 0.00 | 0.00 | 86 | 1015.8 |
| 20260905182533 | 79 | 333 | 3.0 | 8.0 | 0.00 | 0.00 | 0.00 | 86 | 1015.8 |
| 20260905182034 | 79 | 21 | 2.0 | 11.0 | 0.00 | 0.00 | 0.00 | 88 | 1015.9 |
| 20260905181558 | 78 | 28 | 4.0 | 11.0 | 0.00 | 0.00 | 0.00 | 87 | 1015.8 |
| 20260905181033 | 78 | 26 | 6.0 | 11.0 | 0.00 | 0.00 | 0.00 | 86 | 1015.8 |
| 20260905180534 | 78 | 38 | 1.0 | 9.0 | 0.00 | 0.00 | 0.00 | 88 | 1015.9 |
| 20260905180100 | 78 | 355 | 3.0 | 9.0 | 0.00 | 0.00 | 0.00 | 88 | 1015.9 |
| 20260905175536 | 78 | 50 | 1.0 | 5.0 | 0.00 | 0.00 | 0.00 | 89 | 1016.0 |
| 20260905175038 | 77 | 24 | 2.0 | 5.0 | 0.00 | 0.00 | 0.00 | 89 | 1015.9 |
| 20260905174557 | 77 | 34 | 1.0 | 3.0 | 0.00 | 0.00 | 0.00 | 90 | 1015.9 |
| 20260905174035 | 76 | 34 | 2.0 | 5.0 | 0.00 | 0.00 | 0.00 | 91 | 1015.9 |
| 20260905173539 | 76 | 37 | 3.0 | 5.0 | 0.00 | 0.00 | 0.00 | 91 | 1016.0 |
| 20260905173103 | 76 | 37 | 2.0 | 6.0 | 0.00 | 0.00 | 0.00 | 92 | 1016.1 |
| 20260905172534 | 76 | 33 | 2.0 | 6.0 | 0.00 | 0.00 | 0.00 | 92 | 1016.1 |
| 20260905172036 | 76 | 20 | 3.0 | 6.0 | 0.00 | 0.00 | 0.00 | 91 | 1016.0 |
| 20260905171601 | 76 | 40 | 2.0 | 5.0 | 0.00 | 0.00 | 0.00 | 91 | 1016.2 |
| 20260905171034 | 76 | 22 | 1.0 | 4.0 | 0.00 | 0.00 | 0.00 | 91 | 1016.0 |
| 20260905170534 | 76 | 25 | 2.0 | 4.0 | 0.00 | 0.00 | 0.00 | 92 | 1016.1 |
| 20260905170112 | 75 | 26 | 1.0 | 5.0 | 0.00 | 0.00 | 0.00 | 91 | 1016.1 |
| 20260905165535 | 75 | 29 | 1.0 | 5.0 | 0.00 | 0.00 | 0.00 | 92 | 1016.1 |
| 20260905165038 | 75 | 360 | 2.0 | 4.0 | 0.00 | 0.00 | 0.00 | 93 | 1016.2 |
| 20260905164555 | 75 | 0 | 2.0 | 4.0 | 0.00 | 0.00 | 0.00 | 92 | 1016.1 |
| 20260905164035 | 75 | 32 | 2.0 | 5.0 | 0.00 | 0.00 | 0.00 | 93 | 1016.3 |
| 20260905163535 | 75 | 45 | 3.0 | 6.0 | 0.00 | 0.00 | 0.00 | 93 | 1016.3 |
| 20260905163053 | 75 | 28 | 3.0 | 6.0 | 0.00 | 0.00 | 0.00 | 92 | 1016.2 |
| 20260905162535 | 75 | 49 | 1.0 | 5.0 | 0.00 | 0.00 | 0.00 | 93 | 1016.1 |
| 20260905162034 | 75 | 22 | 2.0 | 5.0 | 0.00 | 0.00 | 0.00 | 92 | 1016.1 |
| 20260905161551 | 75 | 21 | 2.0 | 5.0 | 0.00 | 0.00 | 0.00 | 93 | 1016.1 |
| 20260905161035 | 75 | 10 | 2.0 | 7.0 | 0.00 | 0.00 | 0.00 | 93 | 1016.1 |
| 20260905160535 | 75 | 22 | 2.0 | 7.0 | 0.00 | 0.00 | 0.00 | 93 | 1016.1 |
| 20260905160059 | 75 | 25 | 2.0 | 8.0 | 0.00 | 0.00 | 0.00 | 94 | 1016.2 |
| 20260905155535 | 74 | 26 | 4.0 | 8.0 | 0.00 | 0.19 | 0.00 | 94 | 1016.1 |
| 20260905155033 | 74 | 35 | 2.0 | 8.0 | 0.00 | 0.19 | 0.00 | 95 | 1016.1 |
| 20260905154559 | 74 | 36 | 3.0 | 8.0 | 0.00 | 0.19 | 0.00 | 95 | 1016.0 |
| 20260905154039 | 74 | 19 | 4.0 | 8.0 | 0.00 | 0.19 | 0.00 | 95 | 1016.0 |
| 20260905153536 | 73 | 21 | 3.0 | 8.0 | 0.00 | 0.19 | 0.00 | 97 | 1016.0 |
| 20260905153051 | 73 | 44 | 3.0 | 8.0 | 0.00 | 0.19 | 0.00 | 98 | 1016.0 |
| 20260905152535 | 72 | 24 | 4.0 | 10.0 | 0.00 | 0.19 | 0.00 | 96 | 1016.0 |
| 20260905152033 | 72 | 44 | 3.0 | 10.0 | 0.00 | 0.19 | 0.00 | 97 | 1016.0 |
| 20260905151612 | 73 | 31 | 4.0 | 8.0 | 0.00 | 0.19 | 0.00 | 97 | 1016.0 |
| 20260905151035 | 73 | 49 | 3.0 | 7.0 | 0.00 | 0.19 | 0.00 | 97 | 1016.1 |
| 20260905150535 | 73 | 45 | 0.0 | 9.0 | 0.00 | 0.19 | 0.00 | 97 | 1015.8 |
| 20260905150058 | 72 | 56 | 4.0 | 9.0 | 0.00 | 0.19 | 0.00 | 97 | 1015.6 |
| 20260905145535 | 72 | 41 | 4.0 | 9.0 | 0.00 | 0.19 | 0.00 | 97 | 1015.6 |
| 20260905145034 | 73 | 57 | 0.0 | 9.0 | 0.00 | 0.19 | 0.00 | 98 | 1015.6 |
| 20260905144558 | 72 | 43 | 2.0 | 6.0 | 0.00 | 0.19 | 0.00 | 98 | 1015.6 |
| 20260905144037 | 72 | 69 | 2.0 | 8.0 | 0.00 | 0.19 | 0.00 | 98 | 1015.5 |
| 20260905143537 | 72 | 52 | 3.0 | 8.0 | 0.00 | 0.19 | 0.00 | 98 | 1015.4 |
| 20260905143053 | 72 | 28 | 1.0 | 9.0 | 0.00 | 0.19 | 0.00 | 99 | 1015.4 |
| 20260905142533 | 72 | 44 | 3.0 | 9.0 | 0.00 | 0.19 | 0.00 | 99 | 1015.3 |
| 20260905142033 | 72 | 63 | 4.0 | 9.0 | 0.00 | 0.19 | 0.00 | 99 | 1015.3 |
| 20260905141550 | 72 | 26 | 2.0 | 7.0 | 0.00 | 0.19 | 0.00 | 99 | 1015.3 |
| 20260905141033 | 72 | 49 | 2.0 | 7.0 | 0.00 | 0.19 | 0.00 | 100 | 1015.2 |
| 20260905140537 | 72 | 46 | 2.0 | 7.0 | 0.00 | 0.19 | 0.00 | 100 | 1015.2 |
| 20260905140057 | 72 | 71 | 1.0 | 9.0 | 0.00 | 0.19 | 0.00 | 100 | 1015.2 |
| 20260905135536 | 71 | 39 | 1.0 | 9.0 | 0.00 | 0.19 | 0.00 | 100 | 1015.1 |
| 20260905135034 | 71 | 33 | 4.0 | 9.0 | 0.00 | 0.19 | 0.00 | 100 | 1015.1 |
| 20260905134559 | 71 | 57 | 4.0 | 9.0 | 0.00 | 0.19 | 0.00 | 100 | 1015.1 |
| 20260905134034 | 71 | 53 | 3.0 | 9.0 | 0.00 | 0.19 | 0.00 | 100 | 1015.2 |
| 20260905133535 | 71 | 45 | 3.0 | 9.0 | 0.00 | 0.19 | 0.00 | 100 | 1015.3 |
| 20260905133056 | 71 | 47 | 2.0 | 8.0 | 0.00 | 0.19 | 0.00 | 100 | 1015.2 |
| 20260905132533 | 71 | 43 | 2.0 | 9.0 | 0.00 | 0.19 | 0.00 | 100 | 1015.1 |
| 20260905132038 | 71 | 50 | 3.0 | 9.0 | 0.00 | 0.19 | 0.00 | 100 | 1015.1 |
| 20260905131932 | 70 | 41 | 3.0 | 6.0 | 0.00 | 0.19 | 0.00 | 100 | 1015.2 |
| 20260905131035 | 70 | 64 | 3.0 | 6.0 | 0.00 | 0.19 | 0.00 | 100 | 1015.4 |
| 20260905130535 | 70 | 36 | 2.0 | 5.0 | 0.00 | 0.19 | 0.00 | 100 | 1015.6 |
| 20260905130056 | 70 | 48 | 2.0 | 5.0 | 0.00 | 0.19 | 0.00 | 100 | 1015.6 |
| 20260905125534 | 70 | 40 | 2.0 | 6.0 | 0.00 | 0.19 | 0.00 | 100 | 1015.4 |
| 20260905125034 | 70 | 29 | 2.0 | 6.0 | 0.00 | 0.19 | 0.00 | 100 | 1015.3 |
| 20260905124553 | 70 | 24 | 2.0 | 7.0 | 0.00 | 0.19 | 0.00 | 100 | 1015.2 |
| 20260905124034 | 70 | 19 | 3.0 | 7.0 | 0.00 | 0.19 | 0.00 | 100 | 1015.0 |
| 20260905123534 | 70 | 48 | 2.0 | 8.0 | 0.00 | 0.19 | 0.00 | 100 | 1014.9 |
| 20260905123052 | 70 | 46 | 2.0 | 8.0 | 0.00 | 0.19 | 0.00 | 100 | 1015.0 |
| 20260905122535 | 70 | 40 | 4.0 | 8.0 | 0.00 | 0.19 | 0.00 | 100 | 1014.9 |
| 20260905122033 | 70 | 43 | 2.0 | 7.0 | 0.00 | 0.19 | 0.00 | 100 | 1014.7 |
| 20260905121554 | 70 | 61 | 2.0 | 6.0 | 0.00 | 0.19 | 0.00 | 100 | 1014.6 |
| 20260905121035 | 70 | 50 | 3.0 | 9.0 | 0.00 | 0.19 | 0.00 | 100 | 1014.4 |
| 20260905120539 | 69 | 44 | 2.0 | 9.0 | 0.00 | 0.19 | 0.00 | 100 | 1014.4 |
| 20260905120056 | 69 | 51 | 1.0 | 9.0 | 0.00 | 0.19 | 0.00 | 100 | 1014.2 |
| 20260905115534 | 69 | 61 | 1.0 | 9.0 | 0.00 | 0.20 | 0.00 | 100 | 1014.4 |
| 20260905115034 | 69 | 71 | 2.0 | 9.0 | 0.00 | 0.20 | 0.00 | 100 | 1014.2 |
| 20260905114558 | 69 | 31 | 3.0 | 9.0 | 0.00 | 0.20 | 0.00 | 100 | 1014.3 |
| 20260905114035 | 69 | 58 | 1.0 | 9.0 | 0.00 | 0.20 | 0.00 | 100 | 1014.2 |
| 20260905113535 | 69 | 55 | 2.0 | 9.0 | 0.00 | 0.20 | 0.00 | 100 | 1014.2 |
| 20260905113053 | 69 | 56 | 1.0 | 5.0 | 0.00 | 0.20 | 0.00 | 100 | 1014.0 |
| 20260905112534 | 69 | 55 | 1.0 | 5.0 | 0.00 | 0.20 | 0.00 | 100 | 1013.9 |
| 20260905112035 | 69 | 37 | 1.0 | 6.0 | 0.00 | 0.20 | 0.00 | 100 | 1013.7 |
| 20260905111552 | 69 | 37 | 2.0 | 6.0 | 0.00 | 0.20 | 0.00 | 100 | 1013.8 |
| 20260905111123 | 69 | 0 | 2.0 | 6.0 | 0.00 | 0.20 | 0.00 | 100 | 1013.6 |
| 20260905110533 | 69 | 61 | 2.0 | 6.0 | 0.00 | 0.20 | 0.00 | 100 | 1013.5 |
| 20260905110112 | 69 | 38 | 2.0 | 5.0 | 0.00 | 0.20 | 0.00 | 100 | 1013.5 |
| 20260905105534 | 69 | 45 | 2.0 | 4.0 | 0.00 | 0.22 | 0.00 | 100 | 1013.6 |
| 20260905105037 | 69 | 0 | 1.0 | 4.0 | 0.00 | 0.22 | 0.00 | 100 | 1013.4 |
| 20260905104558 | 69 | 44 | 1.0 | 4.0 | 0.00 | 0.22 | 0.00 | 100 | 1013.4 |
| 20260905104038 | 69 | 43 | 0.0 | 5.0 | 0.00 | 0.22 | 0.00 | 100 | 1013.4 |
| 20260905103537 | 69 | 44 | 1.0 | 5.0 | 0.00 | 0.22 | 0.00 | 100 | 1013.5 |
| 20260905103054 | 69 | 44 | 2.0 | 5.0 | 0.00 | 0.22 | 0.00 | 100 | 1013.3 |
| 20260905102533 | 69 | 0 | 1.0 | 5.0 | 0.00 | 0.22 | 0.00 | 100 | 1013.4 |
| 20260905102033 | 69 | 47 | 2.0 | 5.0 | 0.00 | 0.22 | 0.00 | 100 | 1013.3 |
| 20260905101604 | 69 | 0 | 2.0 | 4.0 | 0.00 | 0.22 | 0.00 | 100 | 1013.3 |
| 20260905101034 | 69 | 46 | 1.0 | 4.0 | 0.00 | 0.22 | 0.00 | 100 | 1013.2 |
| 20260905100537 | 69 | 51 | 1.0 | 4.0 | 0.00 | 0.22 | 0.00 | 100 | 1013.2 |
| 20260905100101 | 69 | 51 | 1.0 | 4.0 | 0.00 | 0.22 | 0.00 | 100 | 1013.1 |
| 20260905095535 | 69 | 0 | 1.0 | 4.0 | 0.00 | 0.22 | 0.00 | 100 | 1013.2 |
| 20260905095035 | 69 | 49 | 1.0 | 2.0 | 0.00 | 0.22 | 0.00 | 100 | 1013.2 |
| 20260905094552 | 69 | 0 | 0.0 | 4.0 | 0.00 | 0.22 | 0.00 | 100 | 1013.1 |
| 20260905094033 | 69 | 0 | 1.0 | 4.0 | 0.00 | 0.22 | 0.00 | 100 | 1013.2 |
| 20260905093535 | 69 | 52 | 2.0 | 4.0 | 0.00 | 0.22 | 0.00 | 100 | 1013.1 |
| 20260905093106 | 69 | 55 | 2.0 | 4.0 | 0.00 | 0.22 | 0.00 | 100 | 1013.1 |
| 20260905092533 | 69 | 54 | 1.0 | 4.0 | 0.00 | 0.22 | 0.00 | 100 | 1013.3 |
| 20260905092033 | 69 | 55 | 0.0 | 4.0 | 0.00 | 0.22 | 0.00 | 100 | 1013.2 |
| 20260905091603 | 68 | 0 | 0.0 | 4.0 | 0.00 | 0.22 | 0.00 | 100 | 1013.2 |
| 20260905091033 | 68 | 55 | 0.0 | 3.0 | 0.00 | 0.22 | 0.00 | 100 | 1013.1 |
| 20260905090535 | 68 | 0 | 0.0 | 0.0 | 0.00 | 0.22 | 0.00 | 100 | 1013.3 |
| 20260905085539 | 68 | 0 | 0.0 | 0.0 | 0.00 | 0.23 | 0.00 | 100 | 1013.4 |
| 20260905085035 | 68 | 0 | 0.0 | 0.0 | 0.00 | 0.23 | 0.00 | 100 | 1013.3 |
| 20260905084557 | 68 | 0 | 0.0 | 0.0 | 0.00 | 0.23 | 0.00 | 100 | 1013.2 |
| 20260905084034 | 68 | 0 | 0.0 | 0.0 | 0.00 | 0.23 | 0.00 | 100 | 1013.2 |
| 20260905083534 | 68 | 0 | 0.0 | 0.0 | 0.00 | 0.23 | 0.00 | 100 | 1013.2 |
| 20260905083053 | 68 | 0 | 0.0 | 0.0 | 0.00 | 0.23 | 0.00 | 100 | 1013.2 |
| 20260905082533 | 68 | 0 | 0.0 | 0.0 | 0.00 | 0.23 | 0.00 | 100 | 1013.2 |
| 20260905082033 | 68 | 0 | 0.0 | 0.0 | 0.00 | 0.23 | 0.00 | 100 | 1013.1 |
| 20260905081552 | 69 | 0 | 0.0 | 0.0 | 0.00 | 0.23 | 0.00 | 100 | 1013.1 |
| 20260905081036 | 69 | 0 | 0.0 | 0.0 | 0.00 | 0.23 | 0.00 | 100 | 1013.2 |
| 20260905080534 | 69 | 0 | 0.0 | 0.0 | 0.00 | 0.23 | 0.00 | 100 | 1013.2 |
| 20260905075534 | 69 | 0 | 0.0 | 0.0 | 0.00 | 0.23 | 0.00 | 100 | 1013.1 |
| 20260905075036 | 69 | 0 | 0.0 | 0.0 | 0.00 | 0.23 | 0.00 | 100 | 1013.2 |
| 20260905074552 | 69 | 0 | 0.0 | 0.0 | 0.00 | 0.23 | 0.00 | 100 | 1013.2 |
| 20260905074034 | 70 | 0 | 0.0 | 0.0 | 0.00 | 0.23 | 0.00 | 100 | 1013.1 |
| 20260905073539 | 70 | 0 | 0.0 | 0.0 | 0.00 | 0.23 | 0.00 | 100 | 1013.2 |
| 20260905073100 | 70 | 0 | 0.0 | 0.0 | 0.00 | 0.23 | 0.00 | 100 | 1013.2 |
| 20260905072534 | 70 | 0 | 0.0 | 0.0 | 0.00 | 0.23 | 0.00 | 100 | 1013.1 |
| 20260905072037 | 70 | 0 | 0.0 | 0.0 | 0.00 | 0.23 | 0.00 | 100 | 1013.1 |
| 20260905071555 | 70 | 0 | 0.0 | 0.0 | 0.00 | 0.23 | 0.00 | 100 | 1013.0 |
| 20260905071033 | 70 | 0 | 0.0 | 0.0 | 0.00 | 0.23 | 0.00 | 100 | 1013.1 |
| 20260905070533 | 70 | 0 | 0.0 | 0.0 | 0.00 | 0.23 | 0.00 | 100 | 1013.1 |
| 20260905070106 | 70 | 0 | 0.0 | 0.0 | 0.00 | 0.23 | 0.00 | 100 | 1013.1 |
| 20260905065535 | 69 | 0 | 0.0 | 3.0 | 0.00 | 0.23 | 0.00 | 100 | 1013.2 |
| 20260905065038 | 69 | 0 | 0.0 | 3.0 | 0.00 | 0.23 | 0.00 | 100 | 1013.2 |
| 20260905064552 | 69 | 0 | 0.0 | 0.0 | 0.00 | 0.23 | 0.00 | 100 | 1013.1 |
| 20260905064038 | 70 | 0 | 0.0 | 0.0 | 0.00 | 0.23 | 0.00 | 100 | 1012.9 |
| 20260905063535 | 70 | 0 | 0.0 | 0.0 | 0.00 | 0.23 | 0.00 | 100 | 1012.9 |
| 20260905063059 | 70 | 0 | 0.0 | 0.0 | 0.00 | 0.23 | 0.00 | 100 | 1013.1 |
| 20260905062533 | 70 | 0 | 0.0 | 0.0 | 0.00 | 0.23 | 0.00 | 100 | 1013.1 |
| 20260905062037 | 70 | 0 | 0.0 | 0.0 | 0.00 | 0.23 | 0.00 | 100 | 1013.1 |
| 20260905061605 | 70 | 0 | 0.0 | 3.0 | 0.00 | 0.23 | 0.00 | 100 | 1012.8 |
| 20260905061034 | 70 | 0 | 0.0 | 3.0 | 0.00 | 0.23 | 0.00 | 99 | 1012.9 |
| 20260905060533 | 70 | 0 | 1.0 | 3.0 | 0.00 | 0.23 | 0.00 | 100 | 1012.9 |
| 20260905060054 | 70 | 0 | 0.0 | 0.0 | 0.00 | 0.23 | 0.00 | 99 | 1012.9 |
| 20260905055535 | 70 | 0 | 0.0 | 0.0 | 0.00 | 0.23 | 0.00 | 99 | 1013.1 |
| 20260905055034 | 71 | 0 | 0.0 | 0.0 | 0.00 | 0.23 | 0.00 | 99 | 1013.2 |
| 20260905054556 | 71 | 0 | 0.0 | 0.0 | 0.00 | 0.23 | 0.00 | 99 | 1013.3 |
| 20260905054036 | 71 | 0 | 0.0 | 0.0 | 0.00 | 0.23 | 0.00 | 99 | 1013.3 |
| 20260905053534 | 71 | 0 | 0.0 | 0.0 | 0.00 | 0.23 | 0.00 | 99 | 1013.3 |
| 20260905053048 | 71 | 0 | 0.0 | 0.0 | 0.00 | 0.23 | 0.00 | 99 | 1013.2 |
| 20260905052537 | 71 | 0 | 0.0 | 0.0 | 0.00 | 0.23 | 0.00 | 100 | 1013.3 |
| 20260905052035 | 71 | 0 | 0.0 | 0.0 | 0.00 | 0.23 | 0.00 | 100 | 1013.3 |
| 20260905051556 | 71 | 0 | 0.0 | 0.0 | 0.00 | 0.23 | 0.00 | 100 | 1013.5 |
| 20260905051033 | 71 | 0 | 0.0 | 0.0 | 0.00 | 0.23 | 0.00 | 100 | 1013.6 |
| 20260905050534 | 71 | 0 | 0.0 | 3.0 | 0.00 | 0.23 | 0.00 | 100 | 1013.4 |
| 20260905050053 | 71 | 0 | 0.0 | 3.0 | 0.00 | 0.23 | 0.00 | 100 | 1013.5 |
| 20260905045533 | 71 | 0 | 0.0 | 0.0 | 0.00 | 0.23 | 0.23 | 100 | 1013.5 |
| 20260905045034 | 71 | 0 | 0.0 | 0.0 | 0.00 | 0.23 | 0.23 | 100 | 1013.6 |
| 20260905044553 | 71 | 0 | 0.0 | 0.0 | 0.00 | 0.23 | 0.23 | 99 | 1013.7 |
| 20260905044034 | 71 | 0 | 0.0 | 0.0 | 0.00 | 0.23 | 0.23 | 99 | 1013.5 |
| 20260905043534 | 71 | 0 | 0.0 | 0.0 | 0.00 | 0.23 | 0.23 | 99 | 1013.7 |
| 20260905043048 | 71 | 0 | 0.0 | 0.0 | 0.00 | 0.23 | 0.23 | 99 | 1013.5 |
| 20260905042535 | 71 | 0 | 0.0 | 0.0 | 0.00 | 0.23 | 0.23 | 99 | 1013.6 |
| 20260905042035 | 71 | 0 | 0.0 | 0.0 | 0.00 | 0.23 | 0.23 | 99 | 1013.5 |
| 20260905041556 | 71 | 0 | 0.0 | 0.0 | 0.00 | 0.23 | 0.23 | 99 | 1013.4 |
| 20260905041036 | 71 | 0 | 0.0 | 0.0 | 0.00 | 0.23 | 0.23 | 99 | 1013.5 |
| 20260905040533 | 71 | 0 | 0.0 | 0.0 | 0.00 | 0.23 | 0.23 | 99 | 1013.6 |
| 20260905040056 | 71 | 0 | 0.0 | 0.0 | 0.00 | 0.23 | 0.23 | 98 | 1013.5 |
| 20260905035534 | 71 | 0 | 0.0 | 0.0 | 0.00 | 0.23 | 0.23 | 98 | 1013.3 |
| 20260905035034 | 72 | 0 | 0.0 | 0.0 | 0.00 | 0.23 | 0.23 | 98 | 1013.1 |
| 20260905034600 | 72 | 0 | 0.0 | 0.0 | 0.00 | 0.23 | 0.23 | 98 | 1013.1 |
| 20260905034033 | 72 | 0 | 0.0 | 0.0 | 0.00 | 0.23 | 0.23 | 98 | 1013.2 |
| 20260905033534 | 72 | 0 | 0.0 | 0.0 | 0.00 | 0.23 | 0.23 | 98 | 1013.3 |
| 20260905033105 | 72 | 0 | 0.0 | 0.0 | 0.00 | 0.23 | 0.23 | 98 | 1013.4 |
| 20260905032535 | 72 | 0 | 0.0 | 0.0 | 0.00 | 0.23 | 0.23 | 98 | 1013.3 |
| 20260905032035 | 72 | 0 | 0.0 | 0.0 | 0.00 | 0.23 | 0.23 | 97 | 1013.4 |
| 20260905031607 | 72 | 0 | 0.0 | 0.0 | 0.00 | 0.23 | 0.23 | 97 | 1013.5 |
| 20260905031037 | 73 | 0 | 0.0 | 0.0 | 0.00 | 0.23 | 0.23 | 97 | 1013.7 |
| 20260905030534 | 73 | 0 | 0.0 | 0.0 | 0.00 | 0.23 | 0.23 | 97 | 1013.7 |
| 20260905030104 | 73 | 0 | 0.0 | 0.0 | 0.00 | 0.23 | 0.23 | 97 | 1013.7 |
| 20260905025534 | 73 | 0 | 0.0 | 0.0 | 0.00 | 0.23 | 0.23 | 96 | 1013.6 |
| 20260905025036 | 73 | 0 | 0.0 | 1.0 | 0.00 | 0.23 | 0.23 | 96 | 1013.7 |
| 20260905024601 | 73 | 0 | 0.0 | 1.0 | 0.00 | 0.23 | 0.23 | 96 | 1013.7 |
| 20260905024033 | 73 | 0 | 0.0 | 2.0 | 0.00 | 0.23 | 0.23 | 96 | 1013.5 |
| 20260905023536 | 74 | 0 | 0.0 | 3.0 | 0.00 | 0.23 | 0.23 | 96 | 1013.5 |
| 20260905023056 | 74 | 0 | 0.0 | 3.0 | 0.00 | 0.23 | 0.23 | 96 | 1013.6 |
| 20260905022533 | 74 | 0 | 0.0 | 3.0 | 0.00 | 0.23 | 0.23 | 95 | 1013.6 |
| 20260905022032 | 74 | 0 | 0.0 | 0.0 | 0.00 | 0.23 | 0.23 | 96 | 1013.7 |
| 20260905021553 | 74 | 0 | 0.0 | 3.0 | 0.00 | 0.23 | 0.23 | 95 | 1013.6 |
| 20260905021033 | 74 | 0 | 0.0 | 6.0 | 0.00 | 0.23 | 0.23 | 95 | 1013.7 |
| 20260905020533 | 74 | 93 | 0.0 | 6.0 | 0.00 | 0.23 | 0.23 | 95 | 1013.5 |
| 20260905020058 | 74 | 0 | 1.0 | 6.0 | 0.00 | 0.23 | 0.23 | 95 | 1013.4 |
| 20260905015538 | 75 | 0 | 0.0 | 4.0 | 0.00 | 0.23 | 0.23 | 95 | 1013.4 |
| 20260905015038 | 75 | 0 | 0.0 | 4.0 | 0.00 | 0.23 | 0.23 | 95 | 1013.4 |
| 20260905014559 | 75 | 80 | 0.0 | 3.0 | 0.00 | 0.23 | 0.23 | 94 | 1013.6 |
| 20260905014038 | 75 | 0 | 0.0 | 3.0 | 0.00 | 0.23 | 0.23 | 94 | 1013.4 |
| 20260905013542 | 75 | 0 | 0.0 | 2.0 | 0.00 | 0.23 | 0.23 | 94 | 1013.3 |
| 20260905013101 | 75 | 0 | 0.0 | 3.0 | 0.00 | 0.23 | 0.23 | 94 | 1013.2 |
| 20260905012541 | 76 | 0 | 0.0 | 4.0 | 0.00 | 0.23 | 0.23 | 94 | 1013.5 |
| 20260905012038 | 76 | 0 | 0.0 | 4.0 | 0.00 | 0.23 | 0.23 | 93 | 1013.5 |
| 20260905011556 | 76 | 0 | 0.0 | 4.0 | 0.00 | 0.23 | 0.23 | 93 | 1013.4 |
| 20260905011041 | 76 | 94 | 0.0 | 5.0 | 0.00 | 0.23 | 0.23 | 93 | 1013.3 |
| 20260905010538 | 76 | 44 | 0.0 | 5.0 | 0.00 | 0.23 | 0.23 | 93 | 1013.1 |
| 20260905010055 | 77 | 39 | 0.0 | 4.0 | 0.00 | 0.23 | 0.23 | 92 | 1013.1 |
| 20260905005538 | 77 | 0 | 0.0 | 5.0 | 0.00 | 0.23 | 0.23 | 92 | 1013.0 |
| 20260905005038 | 78 | 46 | 1.0 | 5.0 | 0.00 | 0.23 | 0.23 | 92 | 1012.8 |
| 20260905004634 | 78 | 0 | 0.0 | 6.0 | 0.00 | 0.23 | 0.23 | 92 | 1012.6 |
| 20260905004039 | 79 | 107 | 0.0 | 8.0 | 0.00 | 0.23 | 0.23 | 92 | 1012.6 |
| 20260905003540 | 79 | 0 | 2.0 | 8.0 | 0.00 | 0.23 | 0.23 | 93 | 1012.3 |
| 20260905003100 | 80 | 88 | 0.0 | 4.0 | 0.00 | 0.23 | 0.23 | 95 | 1012.3 |
| 20260905002534 | 80 | 0 | 0.0 | 1.0 | 0.00 | 0.23 | 0.23 | 95 | 1012.3 |
| 20260905002035 | 81 | 0 | 0.0 | 0.0 | 0.00 | 0.23 | 0.23 | 95 | 1012.1 |
| 20260905001606 | 81 | 0 | 0.0 | 0.0 | 0.00 | 0.23 | 0.23 | 95 | 1012.1 |
| 20260905001038 | 81 | 0 | 0.0 | 0.0 | 0.00 | 0.23 | 0.23 | 95 | 1012.0 |
| 20260905000538 | 81 | 0 | 0.0 | 0.0 | 0.00 | 0.23 | 0.23 | 95 | 1012.0 |
| 20260904235538 | 82 | 0 | 0.0 | 0.0 | 0.00 | 0.23 | 0.23 | 95 | 1012.1 |
| 20260904235038 | 82 | 0 | 0.0 | 0.0 | 0.00 | 0.23 | 0.23 | 95 | 1012.2 |
| 20260904234553 | 82 | 0 | 0.0 | 0.0 | 0.00 | 0.23 | 0.23 | 94 | 1012.3 |
| 20260904234038 | 82 | 0 | 0.0 | 0.0 | 0.00 | 0.23 | 0.23 | 94 | 1012.3 |
| 20260904233535 | 82 | 0 | 0.0 | 0.0 | 0.00 | 0.23 | 0.23 | 94 | 1012.3 |
| 20260904233100 | 83 | 0 | 0.0 | 0.0 | 0.00 | 0.23 | 0.23 | 94 | 1012.1 |
| 20260904232538 | 83 | 0 | 0.0 | 0.0 | 0.00 | 0.23 | 0.23 | 94 | 1012.1 |
| 20260904232036 | 83 | 0 | 0.0 | 0.0 | 0.00 | 0.23 | 0.23 | 93 | 1011.9 |
| 20260904231600 | 83 | 0 | 0.0 | 0.0 | 0.00 | 0.23 | 0.23 | 93 | 1011.8 |
| 20260904231034 | 83 | 0 | 0.0 | 0.0 | 0.00 | 0.23 | 0.23 | 93 | 1011.7 |